Terminal Aerodrome Forecast
Issued by NWS

Home | Current Version | Previous Version | Text Only | Print | Product List | Glossary Off
Versions: 1 2 3 4 5 6 7 8 9 10 11 12 13 14 15 16 17 18 19 20 21 22 23 24 25 26

492
FTUS43 KLOT 201927 AAA
TAFDPA
TAF AMD
KDPA 201927Z 2019/2118 27011KT P6SM SCT025 BKN030
     FM202300 03012KT P6SM VCTS BKN040CB
     FM210000 04007KT P6SM BKN050
     FM211500 12005KT P6SM BKN100=

USA.gov is the U.S. government's official web portal to all federal, state and local government web resources and services.